Time,TemperatureF,DewpointF,PressureIn,WindDirection,WindDirectionDegrees,WindSpeedMPH,WindSpeedGustMPH,Humidity,HourlyPrecipIn,Conditions,Clouds,dailyrainin,SoftwareType,DateUTC
2013-02-25 00:00:00,27.7,25.9,30.05,NW,308,0.0,3.0,93,0.00,,,0.00,meteohub,2013-02-25 05:00:00,
2013-02-25 00:01:00,27.7,25.9,30.05,NW,308,0.0,3.0,93,0.00,,,0.00,meteohub,2013-02-25 05:01:00,
2013-02-25 00:06:00,27.7,25.9,30.06,NW,308,0.0,3.0,93,0.00,,,0.00,meteohub,2013-02-25 05:06:00,
2013-02-25 00:11:00,27.7,25.9,30.06,West,280,2.0,2.0,93,0.00,,,0.00,meteohub,2013-02-25 05:11:00,
2013-02-25 00:16:00,27.7,25.9,30.06,West,280,0.0,3.0,93,0.00,,,0.00,meteohub,2013-02-25 05:16:00,
2013-02-25 00:21:00,27.7,25.9,30.06,WNW,287,1.0,3.0,93,0.00,,,0.00,meteohub,2013-02-25 05:21:00,
2013-02-25 00:26:00,27.7,25.9,30.06,WNW,287,0.0,3.0,93,0.00,,,0.00,meteohub,2013-02-25 05:26:00,
2013-02-25 00:31:00,27.7,25.9,30.07,WNW,286,0.0,3.0,93,0.00,,,0.00,meteohub,2013-02-25 05:31:00,
2013-02-25 00:36:00,27.7,26.2,30.07,NW,312,1.0,2.0,94,0.00,,,0.00,meteohub,2013-02-25 05:36:00,
2013-02-25 00:41:00,27.7,25.9,30.07,ENE,58,0.0,2.0,93,0.00,,,0.00,meteohub,2013-02-25 05:41:00,
2013-02-25 00:46:00,27.9,26.4,30.07,ENE,69,1.0,3.0,94,0.00,,,0.00,meteohub,2013-02-25 05:46:00,
2013-02-25 00:51:00,27.9,26.4,30.08,ENE,69,0.0,3.0,94,0.00,,,0.00,meteohub,2013-02-25 05:51:00,
2013-02-25 00:56:00,27.9,26.4,30.08,ENE,76,0.0,2.0,94,0.00,,,0.00,meteohub,2013-02-25 05:56:00,
2013-02-25 01:01:00,27.9,26.4,30.08,ENE,76,0.0,2.0,94,0.00,,,0.00,meteohub,2013-02-25 06:01:00,
2013-02-25 01:06:00,27.9,26.6,30.08,North,355,0.0,2.0,95,0.00,,,0.00,meteohub,2013-02-25 06:06:00,
2013-02-25 01:11:00,27.9,26.6,30.08,North,355,0.0,2.0,95,0.00,,,0.00,meteohub,2013-02-25 06:11:00,
2013-02-25 01:16:00,27.9,26.6,30.08,NNE,17,0.0,2.0,95,0.00,,,0.00,meteohub,2013-02-25 06:16:00,
2013-02-25 01:21:00,27.9,26.6,30.08,WNW,288,0.0,3.0,95,0.00,,,0.00,meteohub,2013-02-25 06:21:00,
2013-02-25 01:26:00,27.7,26.4,30.08,WNW,288,0.0,3.0,95,0.00,,,0.00,meteohub,2013-02-25 06:26:00,
2013-02-25 01:31:00,27.7,26.4,30.08,WNW,288,0.0,3.0,95,0.00,,,0.00,meteohub,2013-02-25 06:31:00,
2013-02-25 01:36:00,27.7,26.4,30.09,WNW,288,0.0,1.0,95,0.00,,,0.00,meteohub,2013-02-25 06:36:00,
2013-02-25 01:41:00,27.5,26.2,30.09,WNW,288,0.0,1.0,95,0.00,,,0.00,meteohub,2013-02-25 06:41:00,
2013-02-25 01:46:00,27.5,26.2,30.09,WNW,288,0.0,1.0,95,0.00,,,0.00,meteohub,2013-02-25 06:46:00,
2013-02-25 01:51:00,27.5,26.2,30.09,WNW,288,0.0,1.0,95,0.00,,,0.00,meteohub,2013-02-25 06:51:00,
2013-02-25 01:57:00,27.3,26.1,30.09,WNW,290,0.0,2.0,95,0.00,,,0.00,meteohub,2013-02-25 06:57:00,
2013-02-25 02:02:00,27.3,26.1,30.09,NNW,336,0.0,2.0,95,0.00,,,0.00,meteohub,2013-02-25 07:02:00,
2013-02-25 02:07:00,27.1,25.7,30.09,NNW,336,0.0,4.0,94,0.00,,,0.00,meteohub,2013-02-25 07:07:00,
2013-02-25 02:12:00,27.0,25.5,30.09,NNW,336,0.0,4.0,94,0.00,,,0.00,meteohub,2013-02-25 07:12:00,
2013-02-25 02:17:00,26.8,25.3,30.09,NNW,336,0.0,2.0,94,0.00,,,0.00,meteohub,2013-02-25 07:17:00,
2013-02-25 02:22:00,26.6,25.2,30.09,NNW,336,0.0,2.0,94,0.00,,,0.00,meteohub,2013-02-25 07:22:00,
2013-02-25 02:27:00,26.4,25.0,30.09,NNW,336,0.0,1.0,94,0.00,,,0.00,meteohub,2013-02-25 07:27:00,
2013-02-25 02:32:00,26.2,24.8,30.09,NNW,336,0.0,1.0,94,0.00,,,0.00,meteohub,2013-02-25 07:32:00,
2013-02-25 02:37:00,26.1,24.6,30.09,NNW,336,0.0,0.0,94,0.00,,,0.00,meteohub,2013-02-25 07:37:00,
2013-02-25 02:42:00,25.5,23.7,30.09,NNW,336,0.0,0.0,93,0.00,,,0.00,meteohub,2013-02-25 07:42:00,
2013-02-25 02:47:00,25.3,23.5,30.10,NNW,336,0.0,0.0,93,0.00,,,0.00,meteohub,2013-02-25 07:47:00,
2013-02-25 02:52:00,25.2,23.7,30.10,NNW,336,0.0,0.0,94,0.00,,,0.00,meteohub,2013-02-25 07:52:00,
2013-02-25 02:57:00,25.0,23.5,30.10,NNW,336,0.0,0.0,94,0.00,,,0.00,meteohub,2013-02-25 07:57:00,
2013-02-25 03:02:00,25.0,23.5,30.10,NNW,336,0.0,1.0,94,0.00,,,0.00,meteohub,2013-02-25 08:02:00,
2013-02-25 03:07:00,24.6,23.2,30.10,NNW,336,0.0,1.0,94,0.00,,,0.00,meteohub,2013-02-25 08:07:00,
2013-02-25 03:12:00,24.6,23.4,30.10,NNW,336,0.0,1.0,95,0.00,,,0.00,meteohub,2013-02-25 08:12:00,
2013-02-25 03:17:00,25.0,23.7,30.10,NNW,336,0.0,0.0,95,0.00,,,0.00,meteohub,2013-02-25 08:17:00,
2013-02-25 03:22:00,25.0,23.7,30.11,NNW,336,0.0,0.0,95,0.00,,,0.00,meteohub,2013-02-25 08:22:00,
2013-02-25 03:27:00,25.2,23.9,30.10,NNW,336,0.0,0.0,95,0.00,,,0.00,meteohub,2013-02-25 08:27:00,
2013-02-25 03:32:00,25.2,24.3,30.11,NNW,336,0.0,0.0,96,0.00,,,0.00,meteohub,2013-02-25 08:32:00,
2013-02-25 03:37:00,25.3,24.4,30.11,NNW,336,0.0,0.0,96,0.00,,,0.00,meteohub,2013-02-25 08:37:00,
2013-02-25 03:42:00,25.3,24.4,30.11,NNW,336,0.0,0.0,96,0.00,,,0.00,meteohub,2013-02-25 08:42:00,
2013-02-25 03:47:00,25.3,24.1,30.11,NNW,336,0.0,0.0,95,0.00,,,0.00,meteohub,2013-02-25 08:47:00,
2013-02-25 03:52:00,25.7,24.8,30.11,NNW,336,0.0,2.0,96,0.00,,,0.00,meteohub,2013-02-25 08:52:00,
2013-02-25 03:57:00,25.9,25.0,30.11,NNW,336,0.0,2.0,96,0.00,,,0.00,meteohub,2013-02-25 08:57:00,
2013-02-25 04:02:00,26.1,25.2,30.11,NNW,336,0.0,2.0,96,0.00,,,0.00,meteohub,2013-02-25 09:02:00,
2013-02-25 04:07:00,26.2,25.3,30.11,WNW,300,1.0,3.0,96,0.00,,,0.00,meteohub,2013-02-25 09:07:00,
2013-02-25 04:12:00,26.4,25.5,30.11,WNW,300,0.0,4.0,96,0.00,,,0.00,meteohub,2013-02-25 09:12:00,
2013-02-25 04:17:00,26.4,25.5,30.11,WNW,300,0.0,4.0,96,0.00,,,0.00,meteohub,2013-02-25 09:17:00,
2013-02-25 04:22:00,26.6,25.7,30.12,WNW,300,0.0,4.0,96,0.00,,,0.00,meteohub,2013-02-25 09:22:00,
2013-02-25 04:27:00,26.8,25.9,30.12,WNW,300,0.0,3.0,96,0.00,,,0.00,meteohub,2013-02-25 09:27:00,
2013-02-25 04:32:00,26.8,25.9,30.12,WNW,300,0.0,3.0,96,0.00,,,0.00,meteohub,2013-02-25 09:32:00,
2013-02-25 04:37:00,26.8,25.5,30.13,WNW,300,0.0,3.0,95,0.00,,,0.00,meteohub,2013-02-25 09:37:00,
2013-02-25 04:42:00,26.8,25.5,30.12,WNW,300,0.0,1.0,95,0.00,,,0.00,meteohub,2013-02-25 09:42:00,
2013-02-25 04:47:00,26.8,25.5,30.13,WNW,300,0.0,0.0,95,0.00,,,0.00,meteohub,2013-02-25 09:47:00,
2013-02-25 04:52:00,26.8,25.5,30.13,WNW,300,0.0,0.0,95,0.00,,,0.00,meteohub,2013-02-25 09:52:00,
2013-02-25 04:57:00,26.8,25.5,30.13,WNW,300,0.0,0.0,95,0.00,,,0.00,meteohub,2013-02-25 09:57:00,
2013-02-25 05:02:00,27.0,25.7,30.13,WNW,300,0.0,0.0,95,0.00,,,0.00,meteohub,2013-02-25 10:02:00,
2013-02-25 05:07:00,27.0,25.7,30.13,WNW,300,0.0,0.0,95,0.00,,,0.00,meteohub,2013-02-25 10:07:00,
2013-02-25 05:12:00,27.0,26.1,30.13,WNW,300,0.0,0.0,96,0.00,,,0.00,meteohub,2013-02-25 10:12:00,
2013-02-25 05:17:00,27.0,26.1,30.13,WNW,300,0.0,0.0,96,0.00,,,0.00,meteohub,2013-02-25 10:17:00,
2013-02-25 05:22:00,27.0,26.1,30.13,WNW,300,0.0,0.0,96,0.00,,,0.00,meteohub,2013-02-25 10:22:00,
2013-02-25 05:27:00,27.0,26.1,30.13,WNW,300,0.0,0.0,96,0.00,,,0.00,meteohub,2013-02-25 10:27:00,
2013-02-25 05:32:00,27.0,26.1,30.14,WNW,300,0.0,0.0,96,0.00,,,0.00,meteohub,2013-02-25 10:32:00,
2013-02-25 05:37:00,27.0,26.1,30.14,WNW,300,0.0,0.0,96,0.00,,,0.00,meteohub,2013-02-25 10:37:00,
2013-02-25 05:42:00,27.0,26.1,30.14,WNW,300,0.0,0.0,96,0.00,,,0.00,meteohub,2013-02-25 10:42:00,
2013-02-25 05:47:00,27.0,26.1,30.14,WNW,300,0.0,0.0,96,0.00,,,0.00,meteohub,2013-02-25 10:47:00,
2013-02-25 05:52:00,27.0,25.7,30.15,WNW,300,0.0,0.0,95,0.00,,,0.00,meteohub,2013-02-25 10:52:00,
2013-02-25 05:57:00,27.0,26.1,30.15,WNW,300,0.0,0.0,96,0.00,,,0.00,meteohub,2013-02-25 10:57:00,
2013-02-25 06:02:00,27.0,26.1,30.15,WNW,300,0.0,1.0,96,0.00,,,0.00,meteohub,2013-02-25 11:02:00,
2013-02-25 06:07:00,27.0,26.1,30.15,WNW,300,0.0,1.0,96,0.00,,,0.00,meteohub,2013-02-25 11:07:00,
2013-02-25 06:12:00,27.0,26.1,30.16,WNW,300,0.0,1.0,96,0.00,,,0.00,meteohub,2013-02-25 11:12:00,
2013-02-25 06:20:00,27.0,26.1,30.16,WNW,300,0.0,1.0,96,0.00,,,0.00,meteohub,2013-02-25 11:20:00,
2013-02-25 06:25:00,27.1,26.2,30.16,WNW,300,0.0,1.0,96,0.00,,,0.00,meteohub,2013-02-25 11:25:00,
2013-02-25 06:30:00,27.1,26.2,30.16,WNW,300,0.0,2.0,96,0.00,,,0.00,meteohub,2013-02-25 11:30:00,
2013-02-25 06:35:00,27.1,26.2,30.16,WNW,300,0.0,2.0,96,0.00,,,0.00,meteohub,2013-02-25 11:35:00,
2013-02-25 06:40:00,27.1,26.2,30.16,WNW,300,1.0,2.0,96,0.00,,,0.00,meteohub,2013-02-25 11:40:00,
2013-02-25 06:45:00,27.1,26.2,30.17,WNW,300,1.0,3.0,96,0.00,,,0.00,meteohub,2013-02-25 11:45:00,
2013-02-25 06:50:00,27.1,26.2,30.17,WNW,300,0.0,3.0,96,0.00,,,0.00,meteohub,2013-02-25 11:50:00,
2013-02-25 06:55:00,27.1,26.2,30.17,WNW,300,0.0,3.0,96,0.00,,,0.00,meteohub,2013-02-25 11:55:00,
2013-02-25 07:00:00,27.1,26.2,30.17,NW,312,0.0,3.0,96,0.00,,,0.00,meteohub,2013-02-25 12:00:00,
2013-02-25 07:05:00,27.1,26.2,30.17,NW,312,0.0,3.0,96,0.00,,,0.00,meteohub,2013-02-25 12:05:00,
2013-02-25 07:10:00,27.1,26.2,30.17,NW,315,0.0,3.0,96,0.00,,,0.00,meteohub,2013-02-25 12:10:00,
2013-02-25 07:15:00,27.3,26.4,30.17,NW,322,0.0,3.0,96,0.00,,,0.00,meteohub,2013-02-25 12:15:00,
2013-02-25 07:20:00,27.3,26.4,30.18,NW,322,0.0,2.0,96,0.00,,,0.00,meteohub,2013-02-25 12:20:00,
2013-02-25 07:25:00,27.3,26.4,30.18,NW,322,0.0,2.0,96,0.00,,,0.00,meteohub,2013-02-25 12:25:00,
2013-02-25 07:30:00,27.5,26.6,30.18,NW,322,0.0,2.0,96,0.00,,,0.00,meteohub,2013-02-25 12:30:00,
2013-02-25 07:35:00,27.7,26.6,30.18,NW,323,0.0,2.0,96,0.00,,,0.00,meteohub,2013-02-25 12:35:00,
2013-02-25 07:40:00,27.7,26.6,30.18,NW,323,0.0,2.0,96,0.00,,,0.00,meteohub,2013-02-25 12:40:00,
2013-02-25 07:45:00,27.7,26.6,30.19,NW,323,0.0,2.0,96,0.00,,,0.00,meteohub,2013-02-25 12:45:00,
2013-02-25 07:50:00,27.9,26.8,30.19,NW,323,0.0,1.0,96,0.00,,,0.00,meteohub,2013-02-25 12:50:00,
2013-02-25 07:55:00,27.9,26.8,30.19,NW,323,0.0,1.0,96,0.00,,,0.00,meteohub,2013-02-25 12:55:00,
2013-02-25 08:00:00,27.9,26.6,30.19,NW,323,0.0,1.0,95,0.00,,,0.00,meteohub,2013-02-25 13:00:00,
2013-02-25 08:06:00,27.9,26.6,30.19,NW,323,0.0,1.0,95,0.00,,,0.00,meteohub,2013-02-25 13:06:00,
2013-02-25 08:11:00,28.0,27.0,30.19,NW,323,0.0,1.0,96,0.00,,,0.00,meteohub,2013-02-25 13:11:00,
2013-02-25 08:16:00,28.0,26.8,30.19,NW,323,0.0,2.0,95,0.00,,,0.00,meteohub,2013-02-25 13:16:00,
2013-02-25 08:21:00,28.2,27.0,30.19,NW,323,0.0,2.0,95,0.00,,,0.00,meteohub,2013-02-25 13:21:00,
2013-02-25 08:26:00,28.2,27.0,30.19,NW,323,0.0,2.0,95,0.00,,,0.00,meteohub,2013-02-25 13:26:00,
2013-02-25 08:31:00,28.4,27.1,30.20,NW,323,0.0,2.0,95,0.00,,,0.00,meteohub,2013-02-25 13:31:00,
2013-02-25 08:36:00,28.6,27.3,30.20,NW,323,0.0,2.0,95,0.00,,,0.00,meteohub,2013-02-25 13:36:00,
2013-02-25 08:41:00,28.8,27.5,30.21,NW,323,0.0,2.0,95,0.00,,,0.00,meteohub,2013-02-25 13:41:00,
2013-02-25 08:46:00,28.9,27.5,30.21,NW,323,0.0,2.0,94,0.00,,,0.00,meteohub,2013-02-25 13:46:00,
2013-02-25 08:51:00,29.1,27.7,30.21,NW,323,0.0,2.0,94,0.00,,,0.00,meteohub,2013-02-25 13:51:00,
2013-02-25 08:56:00,29.1,27.7,30.21,NW,323,0.0,2.0,94,0.00,,,0.00,meteohub,2013-02-25 13:56:00,
2013-02-25 09:01:00,29.5,28.0,30.21,NW,323,0.0,2.0,94,0.00,,,0.00,meteohub,2013-02-25 14:01:00,
2013-02-25 09:06:00,29.5,27.7,30.22,NW,317,1.0,3.0,93,0.00,,,0.00,meteohub,2013-02-25 14:06:00,
2013-02-25 09:12:00,29.7,27.9,30.21,NW,317,0.0,3.0,93,0.00,,,0.00,meteohub,2013-02-25 14:12:00,
2013-02-25 09:17:00,29.7,27.7,30.22,NW,317,0.0,3.0,92,0.00,,,0.00,meteohub,2013-02-25 14:17:00,
2013-02-25 09:22:00,30.0,27.7,30.22,NW,317,0.0,1.0,91,0.00,,,0.00,meteohub,2013-02-25 14:22:00,
2013-02-25 09:27:00,30.0,27.7,30.22,NW,317,0.0,1.0,91,0.00,,,0.00,meteohub,2013-02-25 14:27:00,
2013-02-25 09:32:00,30.0,27.7,30.22,NW,317,0.0,1.0,91,0.00,,,0.00,meteohub,2013-02-25 14:32:00,
2013-02-25 09:37:00,30.0,27.5,30.22,East,81,0.0,1.0,90,0.00,,,0.00,meteohub,2013-02-25 14:37:00,
2013-02-25 09:42:00,30.0,27.5,30.22,NE,50,0.0,3.0,90,0.00,,,0.00,meteohub,2013-02-25 14:42:00,
2013-02-25 09:47:00,30.0,27.5,30.23,ESE,106,0.0,3.0,90,0.00,,,0.00,meteohub,2013-02-25 14:47:00,
2013-02-25 09:52:00,29.8,27.5,30.23,ESE,103,1.0,3.0,91,0.00,,,0.00,meteohub,2013-02-25 14:52:00,
2013-02-25 09:57:00,29.8,27.5,30.23,SSE,157,0.0,3.0,91,0.00,,,0.00,meteohub,2013-02-25 14:57:00,
2013-02-25 10:02:00,30.2,27.7,30.23,SSE,157,0.0,3.0,90,0.00,,,0.00,meteohub,2013-02-25 15:02:00,
2013-02-25 10:07:00,30.4,27.9,30.23,SSE,157,0.0,2.0,90,0.00,,,0.00,meteohub,2013-02-25 15:07:00,
2013-02-25 10:12:00,30.4,27.5,30.23,WNW,286,1.0,2.0,89,0.00,,,0.00,meteohub,2013-02-25 15:12:00,
2013-02-25 10:17:00,30.6,27.7,30.23,WNW,286,0.0,4.0,89,0.00,,,0.00,meteohub,2013-02-25 15:17:00,
2013-02-25 10:22:00,30.7,28.2,30.23,WNW,286,0.0,4.0,90,0.00,,,0.00,meteohub,2013-02-25 15:22:00,
2013-02-25 10:27:00,30.7,27.9,30.23,SSE,161,0.0,4.0,89,0.00,,,0.00,meteohub,2013-02-25 15:27:00,
2013-02-25 10:32:00,30.6,27.7,30.23,SW,222,2.0,3.0,89,0.00,,,0.00,meteohub,2013-02-25 15:32:00,
2013-02-25 10:37:00,30.4,27.9,30.22,WSW,248,0.0,4.0,90,0.00,,,0.00,meteohub,2013-02-25 15:37:00,
2013-02-25 10:42:00,30.2,27.9,30.22,WSW,248,0.0,4.0,91,0.00,,,0.00,meteohub,2013-02-25 15:42:00,
2013-02-25 10:47:00,30.4,28.0,30.22,WSW,248,1.0,4.0,91,0.00,,,0.00,meteohub,2013-02-25 15:47:00,
2013-02-25 10:52:00,30.6,28.2,30.22,WSW,242,0.0,4.0,91,0.00,,,0.00,meteohub,2013-02-25 15:52:00,
2013-02-25 10:57:00,30.9,28.4,30.22,WSW,242,0.0,3.0,90,0.00,,,0.00,meteohub,2013-02-25 15:57:00,
2013-02-25 11:02:00,31.3,28.4,30.23,SW,231,2.0,3.0,89,0.00,,,0.00,meteohub,2013-02-25 16:02:00,
2013-02-25 11:07:00,31.5,28.4,30.23,West,280,1.0,2.0,88,0.00,,,0.00,meteohub,2013-02-25 16:07:00,
2013-02-25 11:12:00,31.6,28.2,30.23,NNE,26,2.0,4.0,87,0.01,,,0.01,meteohub,2013-02-25 16:12:00,
2013-02-25 11:17:00,31.6,28.6,30.23,ENE,73,1.0,4.0,88,0.01,,,0.01,meteohub,2013-02-25 16:17:00,
2013-02-25 11:22:00,31.8,28.8,30.23,ENE,73,1.0,3.0,88,0.01,,,0.01,meteohub,2013-02-25 16:22:00,
2013-02-25 11:27:00,31.6,28.8,30.24,WNW,297,0.0,4.0,89,0.01,,,0.01,meteohub,2013-02-25 16:27:00,
2013-02-25 11:33:00,31.6,28.8,30.24,NNW,346,3.0,4.0,89,0.02,,,0.02,meteohub,2013-02-25 16:33:00,
2013-02-25 11:38:00,31.6,28.6,30.23,ENE,60,0.0,4.0,88,0.02,,,0.02,meteohub,2013-02-25 16:38:00,
2013-02-25 11:43:00,31.8,28.8,30.24,NW,317,1.0,4.0,88,0.02,,,0.02,meteohub,2013-02-25 16:43:00,
2013-02-25 11:48:00,31.6,28.6,30.24,WNW,294,3.0,4.0,88,0.03,,,0.03,meteohub,2013-02-25 16:48:00,
2013-02-25 11:53:00,31.5,28.6,30.23,WNW,294,0.0,5.0,89,0.03,,,0.03,meteohub,2013-02-25 16:53:00,
2013-02-25 11:58:00,31.5,28.9,30.24,WNW,284,0.0,5.0,90,0.03,,,0.03,meteohub,2013-02-25 16:58:00,
2013-02-25 12:03:00,31.5,28.9,30.24,WNW,284,0.0,5.0,90,0.03,,,0.03,meteohub,2013-02-25 17:03:00,
2013-02-25 12:08:00,31.6,29.1,30.23,WNW,284,0.0,2.0,90,0.02,,,0.03,meteohub,2013-02-25 17:08:00,
2013-02-25 12:13:00,31.6,28.8,30.24,WNW,284,0.0,1.0,89,0.02,,,0.03,meteohub,2013-02-25 17:13:00,
2013-02-25 12:18:00,31.8,29.3,30.24,WNW,294,1.0,2.0,90,0.03,,,0.04,meteohub,2013-02-25 17:18:00,
2013-02-25 12:23:00,32.0,29.1,30.24,WNW,294,0.0,3.0,89,0.03,,,0.04,meteohub,2013-02-25 17:23:00,
2013-02-25 12:28:00,32.2,29.3,30.24,WNW,294,0.0,3.0,89,0.03,,,0.04,meteohub,2013-02-25 17:28:00,
2013-02-25 12:33:00,32.7,29.5,30.24,WNW,286,0.0,3.0,88,0.02,,,0.04,meteohub,2013-02-25 17:33:00,
2013-02-25 12:38:00,33.3,29.5,30.24,East,98,2.0,2.0,86,0.02,,,0.04,meteohub,2013-02-25 17:38:00,
2013-02-25 12:43:00,33.4,29.5,30.24,SSW,205,0.0,5.0,85,0.02,,,0.04,meteohub,2013-02-25 17:43:00,
2013-02-25 12:48:00,33.3,29.5,30.24,West,273,0.0,5.0,86,0.01,,,0.04,meteohub,2013-02-25 17:48:00,
2013-02-25 12:53:00,32.9,29.5,30.24,West,260,1.0,5.0,87,0.01,,,0.04,meteohub,2013-02-25 17:53:00,
2013-02-25 12:58:00,32.9,29.5,30.24,SE,132,2.0,5.0,87,0.01,,,0.04,meteohub,2013-02-25 17:58:00,
2013-02-25 13:03:00,32.5,29.1,30.25,SW,216,3.0,4.0,87,0.02,,,0.05,meteohub,2013-02-25 18:03:00,
2013-02-25 13:08:00,32.4,29.1,30.25,SW,216,0.0,4.0,88,0.02,,,0.05,meteohub,2013-02-25 18:08:00,
2013-02-25 13:13:00,32.4,29.1,30.25,NW,318,0.0,4.0,88,0.02,,,0.05,meteohub,2013-02-25 18:13:00,
2013-02-25 13:18:00,32.5,29.7,30.25,NW,318,0.0,4.0,89,0.01,,,0.05,meteohub,2013-02-25 18:18:00,
2013-02-25 13:23:00,32.5,29.7,30.25,NW,317,0.0,4.0,89,0.01,,,0.05,meteohub,2013-02-25 18:23:00,
2013-02-25 13:28:00,32.2,29.3,30.25,NW,311,0.0,4.0,89,0.01,,,0.05,meteohub,2013-02-25 18:28:00,
2013-02-25 13:33:00,32.0,29.5,30.25,NW,311,0.0,4.0,90,0.02,,,0.06,meteohub,2013-02-25 18:33:00,
2013-02-25 13:38:00,32.2,29.7,30.26,NW,311,2.0,4.0,90,0.02,,,0.06,meteohub,2013-02-25 18:38:00,
2013-02-25 13:43:00,32.0,29.5,30.26,NW,308,0.0,4.0,90,0.02,,,0.06,meteohub,2013-02-25 18:43:00,
2013-02-25 13:48:00,32.0,29.5,30.27,NW,307,2.0,3.0,90,0.02,,,0.06,meteohub,2013-02-25 18:48:00,
2013-02-25 13:53:00,31.8,29.3,30.27,WNW,302,2.0,3.0,90,0.02,,,0.06,meteohub,2013-02-25 18:53:00,
2013-02-25 13:58:00,32.2,29.7,30.27,North,5,3.0,3.0,90,0.02,,,0.06,meteohub,2013-02-25 18:58:00,
2013-02-25 14:03:00,32.4,29.5,30.27,WNW,298,3.0,4.0,89,0.02,,,0.07,meteohub,2013-02-25 19:03:00,
2013-02-25 14:08:00,32.5,29.3,30.27,WNW,291,0.0,4.0,88,0.02,,,0.07,meteohub,2013-02-25 19:08:00,
2013-02-25 14:13:00,32.5,29.3,30.26,WNW,291,0.0,4.0,88,0.02,,,0.07,meteohub,2013-02-25 19:13:00,
2013-02-25 14:18:00,32.9,29.7,30.27,WNW,294,1.0,3.0,88,0.02,,,0.07,meteohub,2013-02-25 19:18:00,
2013-02-25 14:23:00,32.7,29.3,30.27,NW,308,3.0,5.0,87,0.02,,,0.07,meteohub,2013-02-25 19:23:00,
2013-02-25 14:28:00,32.9,29.5,30.27,West,272,0.0,6.0,87,0.02,,,0.07,meteohub,2013-02-25 19:28:00,
2013-02-25 14:33:00,32.9,29.1,30.27,West,271,1.0,6.0,86,0.01,,,0.07,meteohub,2013-02-25 19:33:00,
2013-02-25 14:38:00,32.9,29.1,30.27,West,281,1.0,6.0,86,0.02,,,0.07,meteohub,2013-02-25 19:38:00,
2013-02-25 14:43:00,33.1,29.3,30.27,WSW,257,0.0,4.0,86,0.02,,,0.08,meteohub,2013-02-25 19:43:00,
2013-02-25 14:49:00,33.3,29.5,30.27,WSW,257,0.0,4.0,86,0.02,,,0.08,meteohub,2013-02-25 19:49:00,
2013-02-25 14:54:00,33.3,29.3,30.27,NW,325,0.0,4.0,85,0.02,,,0.08,meteohub,2013-02-25 19:54:00,
2013-02-25 14:59:00,33.4,29.7,30.27,NW,325,0.0,3.0,86,0.02,,,0.08,meteohub,2013-02-25 19:59:00,
2013-02-25 15:04:00,33.6,29.7,30.27,NW,325,0.0,2.0,85,0.02,,,0.09,meteohub,2013-02-25 20:04:00,
2013-02-25 15:09:00,34.0,30.0,30.27,NW,325,0.0,2.0,85,0.02,,,0.09,meteohub,2013-02-25 20:09:00,
2013-02-25 15:14:00,33.8,29.8,30.28,SSE,161,2.0,2.0,85,0.02,,,0.09,meteohub,2013-02-25 20:14:00,
2013-02-25 15:19:00,33.4,29.7,30.28,SSE,161,1.0,2.0,86,0.02,,,0.09,meteohub,2013-02-25 20:19:00,
2013-02-25 15:24:00,33.3,30.0,30.28,SSE,161,1.0,3.0,88,0.02,,,0.09,meteohub,2013-02-25 20:24:00,
2013-02-25 15:29:00,32.9,29.1,30.28,WSW,240,0.0,3.0,86,0.02,,,0.09,meteohub,2013-02-25 20:29:00,
2013-02-25 15:34:00,32.9,29.5,30.28,WSW,240,0.0,2.0,87,0.02,,,0.09,meteohub,2013-02-25 20:34:00,
2013-02-25 15:39:00,32.7,29.5,30.28,WSW,240,0.0,4.0,88,0.01,,,0.09,meteohub,2013-02-25 20:39:00,
2013-02-25 15:44:00,32.9,30.0,30.28,NW,320,2.0,4.0,89,0.02,,,0.10,meteohub,2013-02-25 20:44:00,
2013-02-25 15:49:00,32.9,30.0,30.28,West,269,3.0,4.0,89,0.02,,,0.10,meteohub,2013-02-25 20:49:00,
2013-02-25 15:54:00,32.7,29.8,30.29,WNW,292,1.0,3.0,89,0.02,,,0.10,meteohub,2013-02-25 20:54:00,
2013-02-25 15:59:00,32.9,30.0,30.28,WNW,292,0.0,3.0,89,0.02,,,0.10,meteohub,2013-02-25 20:59:00,
2013-02-25 16:04:00,33.1,30.2,30.28,WNW,292,0.0,3.0,89,0.01,,,0.10,meteohub,2013-02-25 21:04:00,
2013-02-25 16:09:00,33.1,30.2,30.29,WNW,292,0.0,1.0,89,0.01,,,0.10,meteohub,2013-02-25 21:09:00,
2013-02-25 16:14:00,32.7,29.8,30.29,WNW,292,0.0,2.0,89,0.01,,,0.10,meteohub,2013-02-25 21:14:00,
2013-02-25 16:19:00,32.7,29.8,30.29,WNW,292,0.0,2.0,89,0.01,,,0.10,meteohub,2013-02-25 21:19:00,
2013-02-25 16:24:00,32.7,29.8,30.29,WNW,292,0.0,2.0,89,0.01,,,0.10,meteohub,2013-02-25 21:24:00,
2013-02-25 16:29:00,32.7,29.8,30.29,WNW,292,1.0,2.0,89,0.01,,,0.10,meteohub,2013-02-25 21:29:00,
2013-02-25 16:34:00,32.7,29.8,30.29,WNW,292,0.0,2.0,89,0.01,,,0.10,meteohub,2013-02-25 21:34:00,
2013-02-25 16:39:00,32.7,29.5,30.29,WNW,292,0.0,3.0,88,0.00,,,0.10,meteohub,2013-02-25 21:39:00,
2013-02-25 16:44:00,32.7,29.5,30.29,WNW,292,0.0,3.0,88,0.00,,,0.10,meteohub,2013-02-25 21:44:00,
2013-02-25 16:49:00,32.7,29.8,30.28,WNW,292,0.0,2.0,89,0.01,,,0.10,meteohub,2013-02-25 21:49:00,
2013-02-25 16:54:00,32.7,29.8,30.28,WNW,292,0.0,2.0,89,0.01,,,0.11,meteohub,2013-02-25 21:54:00,
2013-02-25 16:59:00,32.5,29.3,30.29,WNW,292,0.0,2.0,88,0.01,,,0.11,meteohub,2013-02-25 21:59:00,
2013-02-25 17:04:00,32.4,29.5,30.29,SSE,157,2.0,0.0,89,0.01,,,0.11,meteohub,2013-02-25 22:04:00,
2013-02-25 17:09:00,32.2,29.7,30.29,SSE,157,0.0,3.0,90,0.01,,,0.11,meteohub,2013-02-25 22:09:00,
2013-02-25 17:14:00,31.8,29.5,30.29,SSE,157,0.0,4.0,91,0.01,,,0.11,meteohub,2013-02-25 22:14:00,
2013-02-25 17:19:00,31.6,29.3,30.29,SSE,157,0.0,4.0,91,0.01,,,0.11,meteohub,2013-02-25 22:19:00,
2013-02-25 17:24:00,31.5,29.1,30.29,SSE,157,0.0,2.0,91,0.01,,,0.11,meteohub,2013-02-25 22:24:00,
2013-02-25 17:29:00,31.3,28.9,30.29,SSE,157,0.0,1.0,91,0.01,,,0.11,meteohub,2013-02-25 22:29:00,
2013-02-25 17:34:00,30.9,28.6,30.30,SSE,157,0.0,0.0,91,0.01,,,0.11,meteohub,2013-02-25 22:34:00,
2013-02-25 17:39:00,30.7,28.8,30.30,SSE,157,0.0,1.0,92,0.01,,,0.11,meteohub,2013-02-25 22:39:00,
2013-02-25 17:44:00,30.6,28.6,30.30,SSE,157,0.0,1.0,92,0.01,,,0.11,meteohub,2013-02-25 22:44:00,
2013-02-25 17:49:00,30.4,28.4,30.30,SSE,157,0.0,1.0,92,0.00,,,0.11,meteohub,2013-02-25 22:49:00,
2013-02-25 17:55:00,30.0,28.0,30.30,SSE,157,0.0,0.0,92,0.00,,,0.11,meteohub,2013-02-25 22:55:00,
2013-02-25 18:00:00,29.8,27.9,30.31,SSE,157,0.0,0.0,92,0.00,,,0.11,meteohub,2013-02-25 23:00:00,
2013-02-25 18:04:00,29.8,28.0,30.31,SSE,157,0.0,0.0,93,0.00,,,0.11,meteohub,2013-02-25 23:04:00,
2013-02-25 18:09:00,29.8,28.0,30.31,SSE,157,0.0,0.0,93,0.00,,,0.11,meteohub,2013-02-25 23:09:00,
2013-02-25 18:14:00,29.8,28.0,30.31,SSE,157,0.0,0.0,93,0.00,,,0.11,meteohub,2013-02-25 23:14:00,
2013-02-25 18:20:00,29.7,27.9,30.31,SSE,157,0.0,0.0,93,0.00,,,0.11,meteohub,2013-02-25 23:20:00,
2013-02-25 18:25:00,29.5,27.7,30.31,SSE,157,0.0,0.0,93,0.00,,,0.11,meteohub,2013-02-25 23:25:00,
2013-02-25 18:30:00,29.3,27.5,30.32,SSE,157,0.0,0.0,93,0.00,,,0.11,meteohub,2013-02-25 23:30:00,
2013-02-25 18:35:00,29.1,27.7,30.32,SSE,157,0.0,0.0,94,0.00,,,0.11,meteohub,2013-02-25 23:35:00,
2013-02-25 18:40:00,29.3,27.9,30.32,SSE,157,0.0,0.0,94,0.00,,,0.11,meteohub,2013-02-25 23:40:00,
2013-02-25 18:45:00,29.5,28.0,30.32,SSE,157,0.0,0.0,94,0.00,,,0.11,meteohub,2013-02-25 23:45:00,
2013-02-25 18:50:00,29.5,28.0,30.32,SSE,157,0.0,0.0,94,0.00,,,0.11,meteohub,2013-02-25 23:50:00,
2013-02-25 18:55:00,29.5,28.0,30.33,SSE,157,0.0,0.0,94,0.00,,,0.11,meteohub,2013-02-25 23:55:00,
2013-02-25 19:00:00,29.5,28.0,30.33,SSE,157,0.0,0.0,94,0.00,,,0.11,meteohub,2013-02-26 00:00:00,
2013-02-25 19:05:00,29.5,28.0,30.33,SSE,157,0.0,0.0,94,0.00,,,0.00,meteohub,2013-02-26 00:05:00,
2013-02-25 19:10:00,29.5,28.2,30.33,SSE,157,0.0,0.0,95,0.00,,,0.00,meteohub,2013-02-26 00:10:00,
2013-02-25 19:15:00,29.7,28.2,30.33,SSE,157,0.0,0.0,94,0.00,,,0.00,meteohub,2013-02-26 00:15:00,
2013-02-25 19:20:00,29.5,28.0,30.33,SSE,157,0.0,0.0,94,0.00,,,0.00,meteohub,2013-02-26 00:20:00,
2013-02-25 19:25:00,29.5,28.0,30.33,SSE,157,0.0,0.0,94,0.00,,,0.00,meteohub,2013-02-26 00:25:00,
2013-02-25 19:30:00,29.3,27.9,30.33,SSE,157,0.0,1.0,94,0.00,,,0.00,meteohub,2013-02-26 00:30:00,
2013-02-25 19:35:00,29.1,27.7,30.33,SSE,157,0.0,1.0,94,0.00,,,0.00,meteohub,2013-02-26 00:35:00,
2013-02-25 19:40:00,29.1,27.7,30.33,SSE,157,0.0,1.0,94,0.00,,,0.00,meteohub,2013-02-26 00:40:00,
2013-02-25 19:45:00,29.1,27.7,30.33,SSE,157,0.0,1.0,94,0.00,,,0.00,meteohub,2013-02-26 00:45:00,
2013-02-25 19:50:00,28.9,27.5,30.33,SSE,157,0.0,1.0,94,0.00,,,0.00,meteohub,2013-02-26 00:50:00,
2013-02-25 19:55:00,28.4,27.0,30.33,SSE,157,0.0,1.0,94,0.00,,,0.00,meteohub,2013-02-26 00:55:00,
2013-02-25 20:00:00,28.2,26.8,30.33,SSE,157,0.0,1.0,94,0.00,,,0.00,meteohub,2013-02-26 01:00:00,
2013-02-25 20:05:00,27.7,26.2,30.34,SSE,157,0.0,1.0,94,0.00,,,0.00,meteohub,2013-02-26 01:05:00,
2013-02-25 20:10:00,27.3,25.9,30.34,SSE,157,0.0,1.0,94,0.00,,,0.00,meteohub,2013-02-26 01:10:00,
2013-02-25 20:15:00,27.5,26.2,30.34,SSE,157,0.0,1.0,95,0.00,,,0.00,meteohub,2013-02-26 01:15:00,
2013-02-25 20:20:00,27.7,26.4,30.34,SSE,157,0.0,1.0,95,0.00,,,0.00,meteohub,2013-02-26 01:20:00,
2013-02-25 20:25:00,27.1,25.7,30.34,SSE,157,0.0,0.0,94,0.00,,,0.00,meteohub,2013-02-26 01:25:00,
2013-02-25 20:30:00,26.8,25.3,30.34,SSE,157,0.0,0.0,94,0.00,,,0.00,meteohub,2013-02-26 01:30:00,
2013-02-25 20:35:00,27.0,25.7,30.34,SSE,157,0.0,0.0,95,0.00,,,0.00,meteohub,2013-02-26 01:35:00,
2013-02-25 20:40:00,27.5,26.6,30.34,ENE,69,0.0,0.0,96,0.00,,,0.00,meteohub,2013-02-26 01:40:00,
2013-02-25 20:45:00,27.9,26.6,30.34,ENE,69,0.0,0.0,95,0.00,,,0.00,meteohub,2013-02-26 01:45:00,
2013-02-25 20:51:00,28.0,26.8,30.34,ENE,69,0.0,0.0,95,0.00,,,0.00,meteohub,2013-02-26 01:51:00,
2013-02-25 20:56:00,28.0,26.8,30.34,ENE,69,0.0,0.0,95,0.00,,,0.00,meteohub,2013-02-26 01:56:00,
2013-02-25 21:00:00,28.0,26.8,30.34,ENE,69,0.0,0.0,95,0.00,,,0.00,meteohub,2013-02-26 02:00:00,
2013-02-25 21:05:00,28.0,26.8,30.34,ENE,69,0.0,0.0,95,0.00,,,0.00,meteohub,2013-02-26 02:05:00,
2013-02-25 21:11:00,28.0,26.8,30.34,ENE,69,0.0,0.0,95,0.00,,,0.00,meteohub,2013-02-26 02:11:00,
2013-02-25 21:16:00,28.0,26.8,30.34,ENE,69,0.0,0.0,95,0.00,,,0.00,meteohub,2013-02-26 02:16:00,
2013-02-25 21:21:00,28.0,26.8,30.34,ENE,69,0.0,0.0,95,0.00,,,0.00,meteohub,2013-02-26 02:21:00,
2013-02-25 21:26:00,28.0,26.8,30.34,ENE,69,0.0,0.0,95,0.00,,,0.00,meteohub,2013-02-26 02:26:00,
2013-02-25 21:31:00,28.0,26.8,30.35,ENE,69,0.0,0.0,95,0.00,,,0.00,meteohub,2013-02-26 02:31:00,
2013-02-25 21:36:00,28.0,26.8,30.35,ENE,69,0.0,0.0,95,0.00,,,0.00,meteohub,2013-02-26 02:36:00,
2013-02-25 21:41:00,28.2,27.0,30.34,ENE,69,0.0,0.0,95,0.00,,,0.00,meteohub,2013-02-26 02:41:00,
2013-02-25 21:46:00,28.6,27.3,30.34,ENE,69,0.0,0.0,95,0.00,,,0.00,meteohub,2013-02-26 02:46:00,
2013-02-25 21:51:00,28.6,27.3,30.34,ENE,69,0.0,0.0,95,0.00,,,0.00,meteohub,2013-02-26 02:51:00,
2013-02-25 21:56:00,28.6,27.3,30.34,ENE,69,0.0,0.0,95,0.00,,,0.00,meteohub,2013-02-26 02:56:00,
2013-02-25 22:01:00,28.6,27.3,30.34,ENE,69,0.0,0.0,95,0.00,,,0.00,meteohub,2013-02-26 03:01:00,
2013-02-25 22:06:00,28.4,27.1,30.35,ENE,69,0.0,0.0,95,0.00,,,0.00,meteohub,2013-02-26 03:06:00,
2013-02-25 22:11:00,28.0,26.8,30.35,ENE,69,0.0,0.0,95,0.00,,,0.00,meteohub,2013-02-26 03:11:00,
2013-02-25 22:16:00,28.0,26.8,30.34,ENE,69,0.0,0.0,95,0.00,,,0.00,meteohub,2013-02-26 03:16:00,
2013-02-25 22:21:00,28.0,26.8,30.35,ENE,69,0.0,0.0,95,0.00,,,0.00,meteohub,2013-02-26 03:21:00,
2013-02-25 22:26:00,28.2,27.0,30.35,ENE,69,0.0,0.0,95,0.00,,,0.00,meteohub,2013-02-26 03:26:00,
2013-02-25 22:31:00,28.6,27.5,30.35,ENE,69,0.0,0.0,96,0.00,,,0.00,meteohub,2013-02-26 03:31:00,
2013-02-25 22:36:00,28.6,27.5,30.35,ENE,69,0.0,0.0,96,0.00,,,0.00,meteohub,2013-02-26 03:36:00,
2013-02-25 22:41:00,28.6,27.3,30.35,ENE,69,0.0,0.0,95,0.00,,,0.00,meteohub,2013-02-26 03:41:00,
2013-02-25 22:46:00,28.6,27.3,30.35,ENE,69,0.0,0.0,95,0.00,,,0.00,meteohub,2013-02-26 03:46:00,
2013-02-25 22:51:00,28.6,27.5,30.35,ENE,69,0.0,0.0,96,0.00,,,0.00,meteohub,2013-02-26 03:51:00,
2013-02-25 22:56:00,28.6,27.5,30.35,ENE,69,0.0,0.0,96,0.00,,,0.00,meteohub,2013-02-26 03:56:00,
2013-02-25 23:01:00,28.8,27.7,30.35,ENE,69,0.0,0.0,96,0.00,,,0.00,meteohub,2013-02-26 04:01:00,
2013-02-25 23:06:00,28.8,27.7,30.35,ENE,69,0.0,0.0,96,0.00,,,0.00,meteohub,2013-02-26 04:06:00,
2013-02-25 23:11:00,28.8,27.7,30.35,ENE,69,0.0,0.0,96,0.00,,,0.00,meteohub,2013-02-26 04:11:00,
2013-02-25 23:16:00,28.6,27.5,30.35,ENE,69,0.0,0.0,96,0.00,,,0.00,meteohub,2013-02-26 04:16:00,
2013-02-25 23:21:00,28.6,27.3,30.35,ENE,69,0.0,0.0,95,0.00,,,0.00,meteohub,2013-02-26 04:21:00,
2013-02-25 23:26:00,28.6,27.5,30.35,ENE,69,0.0,0.0,96,0.00,,,0.00,meteohub,2013-02-26 04:26:00,
2013-02-25 23:31:00,28.6,27.5,30.35,ENE,69,0.0,0.0,96,0.00,,,0.00,meteohub,2013-02-26 04:31:00,
2013-02-25 23:36:00,28.6,27.5,30.36,ENE,69,0.0,0.0,96,0.00,,,0.00,meteohub,2013-02-26 04:36:00,
2013-02-25 23:41:00,28.8,27.7,30.36,ENE,69,0.0,0.0,96,0.00,,,0.00,meteohub,2013-02-26 04:41:00,
2013-02-25 23:46:00,28.6,27.5,30.36,ENE,69,0.0,0.0,96,0.00,,,0.00,meteohub,2013-02-26 04:46:00,
2013-02-25 23:51:00,28.6,27.5,30.36,ENE,69,0.0,0.0,96,0.00,,,0.00,meteohub,2013-02-26 04:51:00,
2013-02-25 23:56:00,28.6,27.5,30.36,ENE,69,0.0,0.0,96,0.00,,,0.00,meteohub,2013-02-26 04:56:00,